Flag for Austria Weather past 2 weeks in Zwettl, Lower Austria, Austria

Now
86 °F

Pleasantly warm.


Feels Like: 85 °F
Forecast: 59 / 89 °F
Wind: 2 mph from Southeast

Location: Retz

Current Time: Jul 4, 2015 at 2:25:03 PM

Latest Report: Jul 4, 2015 at 1:00 PM


Visibility: N/A

Pressure: 30.16 "Hg (28.43 "Hg at 524m altitude)

Humidity: 37%

Dew point: 57 °F

Location of ZwettlLocation

Historic Weather in Zwettl — Graph

°F

Zwettl temperature yesterday

Maximum temperature yesterday: 87 °F (at 5:00 PM)
Minimum temperature yesterday: 66 °F (at 6:00 AM)
Average temperature yesterday: 77 °F

Past Weeks' High & Low Weather Summary

 TemperatureHumidityPressure
High87 °F (Jul 3, 5:00 PM)99% (Jun 23, 3:00 AM)30.29 "Hg (Jun 23, 3:00 AM)
Low49 °F (Jun 21, 1:00 AM)30% (Jul 2, 5:00 PM)29.72 "Hg (Jun 23, 4:00 AM)
Average65 °F61%30.08 "Hg
* Reported Jun 19 1:00 PM — Jul 4 1:00 PM, Zwettl, Weather by CustomWeather, © 2015

Note: Actual official high and low records may vary slightly from our data, if they occured in-between our weather recording intervals... More about our weather records

Advertising

Zwettl weather history for previous 24 hours

 ConditionsComfort  
Time TempWeatherWind HumidityBarometerVisibility
1:00 PM
Sat, Jul 4
86 °FPleasantly warm.2 mph37%30.16 "HgN/A
12:00 PM85 °FWarm.3 mph41%30.18 "HgN/A
11:00 AM81 °FWarm.3 mph48%30.20 "HgN/A
10:00 AM78 °FWarm.2 mph52%30.21 "HgN/A
9:00 AM76 °FMild.2 mph54%30.22 "HgN/A
8:00 AM72 °FPassing clouds.3 mph61%30.22 "Hg11 mi
7:00 AM68 °FPassing clouds.5 mph66%30.23 "Hg11 mi
6:00 AM68 °FMild.5 mph66%30.23 "HgN/A
5:00 AM70 °FMild.3 mph62%30.23 "HgN/A
4:00 AM70 °FMild.2 mph61%30.24 "HgN/A
3:00 AM71 °FMild.1 mph58%30.25 "HgN/A
2:00 AM72 °FMild.1 mph56%30.25 "HgN/A
1:00 AM73 °FMild.No wind55%30.26 "HgN/A
12:00 AM73 °FMild.2 mph56%30.27 "HgN/A
10:00 PM
Fri, Jul 3
76 °FMild.2 mph55%30.27 "HgN/A
9:00 PM79 °FWarm.2 mph49%30.23 "HgN/A
8:00 PM82 °FWarm.3 mph41%30.22 "HgN/A
7:00 PM85 °FPleasantly warm.3 mph37%30.21 "HgN/A
6:00 PM86 °FPleasantly warm.2 mph35%30.22 "HgN/A
5:00 PM87 °FPleasantly warm.2 mph33%30.22 "HgN/A
4:00 PM86 °FPleasantly warm.2 mph34%30.23 "HgN/A
3:00 PM85 °FPleasantly warm.2 mph33%30.24 "HgN/A
2:00 PM84 °FSunny.3 mph39%30.26 "Hg16 mi
Weather by CustomWeather, © 2015

See weather overviewHow to use our weather pages